Regional Weather Roundup
Issued by NWS

Home | Current Version | Previous Version | Graphics & Text | Print | Product List | Glossary On
Versions: 1 2 3 4 5 6 7 8 9 10 11 12 13 14 15 16 17 18 19 20 21 22 23 24 25 26 27 28 29 30 31 32 33 34 35 36 37 38 39 40 41 42 43 44 45 46 47 48 49 50
000
ASUS44 KMEG 171900
RWRTN
TENNESSEE HOURLY STATE WEATHER ROUNDUP
NATIONAL WEATHER SERVICE MEMPHIS TN
100 PM CST WED DEC 17 2014

TNZ002-004-019-021-049-052-054-088>092-172000-
WEST TENNESSEE

CITY           SKY/WX    TMP DP  RH WIND       PRES   REMARKS
MEMPHIS INTL   CLOUDY    44  32  62 NE3       30.28F
NWS MEMPHIS      N/A     41 N/A N/A MISG        N/A
JACKSON        CLOUDY    41  30  65 N3        30.28F
DYERSBURG      CLOUDY    39  19  45 CALM      30.31F
UNION CITY     SUNNY     37  28  70 NE3       30.28F
PARIS          SUNNY     37  27  65 CALM      30.27F
LEXINGTON      SUNNY     43  30  61 VRB6      30.25S
SAVANNAH       SUNNY     43  30  61 CALM      30.26S
$$

TNZ008-025-027-028-033-062-065-066-172000-
NORTH MIDDLE TENNESSEE

CITY           SKY/WX    TMP DP  RH WIND       PRES   REMARKS
NASHVILLE      CLOUDY    39  30  70 W3        30.26F
CLARKSVILLE    SUNNY     40  28  62 E5        30.26F
COOKEVILLE     CLOUDY    37  32  81 NE3       30.20F
CROSSVILLE     CLOUDY    38  30  73 CALM      30.18F
$$

TNZ061-075-076-078-094-096-097-172000-
SOUTH MIDDLE TENNESSEE

CITY           SKY/WX    TMP DP  RH WIND       PRES   REMARKS
FAYETTEVILLE   CLOUDY    37  30  75 MISG      30.21F
TULLAHOMA      CLOUDY    37  30  75 VRB3      30.22F
WINCHESTER     CLOUDY    39  34  81 N6        30.22F WCI  35
SHELBYVILLE    CLOUDY    39  34  81 N3        30.24F
$$

TNZ017-018-042-046-047-172000-
NORTHEAST TENNESSEE

CITY           SKY/WX    TMP DP  RH WIND       PRES   REMARKS
TRI CITIES     MOSUNNY   48  33  56 W12       30.14F
ELIZABETHTON   CLOUDY    45  34  65 VRB6      30.13F
$$

TNZ012-013-036-069-073-074-172000-
CENTRAL EAST TENNESSEE

CITY           SKY/WX    TMP DP  RH WIND       PRES   REMARKS
KNOXVILLE      CLOUDY    44  35  70 S5        30.18F
OAK RIDGE      CLOUDY    47  34  60 CALM      30.19F
GATLINBURG     CLOUDY    45  34  65 SW3       30.17F
$$

TNZ083-085-099-172000-
SOUTHEAST TENNESSEE

CITY           SKY/WX    TMP DP  RH WIND       PRES   REMARKS
CHATTANOOGA    PTSUNNY   49  36  61 VRB6      30.20F
$$

SKY/WX REPORTED AS FAIR MEANS FEW OR NO CLOUDS BELOW
12 THOUSAND FEET.



USA.gov is the U.S. government's official web portal to all federal, state and local government web resources and services.